Theta_e
327 327 326 325 324 322 320 321 323 323 320 319 319 319 318 319 320 321 320 320 327 331 330 329 329 329 330 330 330 330 330 330 330 328 324 320 319 317 316 316 318 323 326 326 324 321 323 323 318 312 308 307 307 306 307 306 306 305 305 304 304 304 304 303 303 303 304 304 304 304 305 305 306 306 306 307 307 308 308 308 308 309 309 309 308
327 328 327 326 325 325 323 323 326 326 323 322 322 320 319 320 322 323 323 324 328 330 329 328 328 328 330 330 330 330 330 330 330 326 323 320 318 317 317 316 318 321 323 324 322 320 323 325 322 315 309 309 308 307 308 307 307 306 306 306 306 305 304 304 303 303 303 303 303 304 304 304 305 305 306 306 307 307 308 308 308 308 309 309 309
328 328 327 327 327 327 327 326 327 328 326 325 324 323 322 322 324 324 325 325 327 330 329 328 327 328 329 329 330 330 330 330 329 327 324 321 319 318 317 317 318 319 321 322 320 320 322 322 321 315 311 311 310 310 310 310 310 310 311 311 310 310 308 307 305 304 303 303 303 303 303 303 304 304 304 305 305 306 307 307 308 308 309 309 309
328 328 327 328 327 327 328 327 327 327 327 327 326 326 325 325 326 326 326 326 326 328 329 328 327 327 327 328 329 330 331 330 329 328 326 323 321 319 317 316 318 319 319 319 319 322 323 323 321 319 316 315 315 315 316 316 316 317 318 317 316 315 313 311 309 307 305 303 303 302 302 302 303 303 303 303 304 304 305 307 308 308 309 309 309
328 327 327 328 328 327 327 327 327 327 326 327 327 327 327 327 328 328 328 328 327 326 326 326 326 326 326 328 330 330 330 330 329 328 326 325 322 320 319 317 318 319 318 317 320 324 325 325 324 324 322 322 321 321 322 322 323 323 323 324 323 321 319 317 315 313 311 308 305 303 302 302 302 302 302 302 302 303 305 306 308 308 308 309 309
328 327 327 327 328 328 327 327 328 327 326 327 328 328 327 328 329 329 329 329 328 327 326 325 326 327 327 329 330 330 330 329 329 328 326 325 323 322 322 320 319 320 320 321 324 326 326 327 326 325 325 325 325 324 324 326 327 326 326 327 327 325 324 322 320 319 318 315 312 309 307 305 304 304 303 304 304 304 306 307 308 309 309 308 309
327 328 327 328 328 327 327 327 327 327 326 327 328 328 328 329 329 330 329 329 329 329 327 327 328 328 329 330 330 330 329 329 329 328 327 326 325 325 324 323 322 322 322 323 326 327 326 326 326 325 326 326 325 325 326 326 327 326 327 328 327 327 326 325 324 323 322 321 318 316 315 313 312 311 311 310 310 310 309 309 309 309 309 308 308
326 326 327 329 328 327 327 326 326 326 326 327 328 328 328 328 328 329 329 328 328 328 327 327 328 330 330 328 328 329 329 329 329 328 327 327 326 325 325 325 324 324 324 324 325 326 326 326 325 325 326 325 325 325 326 325 326 326 326 327 326 327 327 326 326 326 325 324 322 322 321 320 319 317 317 316 314 313 312 311 310 309 308 308 308
325 324 326 328 328 327 327 326 326 326 326 327 328 327 327 327 327 328 328 327 327 327 327 327 329 329 328 327 328 328 328 328 328 328 327 326 326 325 325 325 325 325 325 325 325 325 325 325 325 325 325 324 323 323 324 323 324 324 325 326 325 325 326 326 326 325 324 324 325 325 324 324 323 322 321 320 317 314 313 312 311 310 309 308 308
325 324 325 327 327 327 327 326 326 327 326 326 327 327 327 327 327 328 328 327 326 326 326 328 329 328 328 328 328 327 327 327 327 327 327 326 326 325 325 326 326 326 325 325 325 325 324 324 325 325 324 323 323 322 322 323 323 324 324 325 324 324 325 325 325 323 322 324 326 325 325 325 325 324 324 323 320 316 314 313 312 311 310 310 309
325 325 326 326 326 327 327 326 327 327 326 326 326 326 327 327 327 327 327 327 326 327 328 328 328 328 328 328 327 327 327 326 326 326 326 326 326 325 326 326 326 326 326 325 325 325 325 325 325 325 324 324 323 323 322 323 322 322 323 323 324 323 324 324 324 323 323 324 324 324 325 326 326 326 325 324 323 320 317 316 314 313 312 311 310
326 326 326 326 327 327 327 327 327 327 327 326 326 327 328 327 327 327 326 326 327 328 328 328 328 328 328 328 328 327 327 326 326 326 326 326 325 325 325 324 325 326 326 326 326 326 325 325 325 325 324 323 323 323 323 322 321 320 320 321 322 322 322 322 322 321 322 324 324 324 325 326 326 326 326 325 325 323 322 320 318 316 315 313 312
326 326 326 327 328 327 326 327 328 328 327 327 327 327 328 328 327 326 326 326 327 328 328 328 328 328 328 328 328 327 327 327 326 326 325 324 323 322 322 322 323 325 326 325 325 325 324 324 325 324 323 323 323 322 322 320 319 319 318 320 321 321 321 322 322 321 322 324 324 325 325 325 325 325 326 326 326 325 324 323 322 320 318 317 315
326 326 327 328 328 327 326 327 328 328 328 328 327 327 327 328 327 326 327 327 327 328 328 328 328 328 328 328 327 327 326 326 325 324 322 321 320 319 319 320 323 324 324 324 323 322 322 323 324 323 322 322 321 320 319 318 318 318 319 320 321 321 321 322 322 321 321 323 324 324 324 325 325 325 326 326 326 326 325 325 324 324 322 320 318
326 327 327 328 328 328 327 327 328 328 329 328 327 327 327 328 327 326 327 327 327 327 328 328 328 328 327 327 327 327 326 324 323 322 322 321 321 320 319 320 321 322 322 322 321 321 322 322 322 321 320 320 319 318 318 318 318 320 321 320 321 321 321 321 322 322 322 323 324 324 324 324 325 325 325 326 326 326 325 325 325 325 325 323 322
325 326 326 327 327 328 328 328 328 328 328 327 327 326 326 328 327 326 326 326 327 327 327 328 328 327 327 327 326 326 326 324 322 322 323 322 322 321 320 320 320 320 320 320 320 321 321 321 320 319 319 319 318 318 318 318 319 320 321 320 321 320 320 321 322 322 322 323 323 322 323 323 323 324 324 324 324 324 324 325 325 325 325 325 325
324 325 326 327 327 327 327 327 327 327 327 327 327 326 326 327 328 327 327 326 326 327 327 327 328 327 326 326 326 325 325 324 322 323 323 323 322 322 321 320 320 320 320 320 320 320 320 319 319 319 319 319 319 318 318 316 316 317 318 319 320 320 320 321 321 320 321 321 321 320 320 320 320 320 320 320 320 321 322 323 324 325 324 324 325
324 325 326 326 326 327 327 326 326 326 326 326 327 326 326 327 328 328 327 327 327 327 327 327 328 328 326 325 325 325 325 323 323 323 323 323 322 321 321 320 319 319 319 319 318 318 318 318 318 319 319 318 317 316 314 313 312 312 313 315 318 319 319 320 320 320 321 321 321 320 319 319 319 319 318 317 317 317 317 319 321 322 323 324 324
325 325 325 325 326 327 326 325 326 326 326 326 326 326 326 327 328 328 328 328 328 327 327 328 328 328 327 326 325 325 324 324 323 323 323 324 323 321 320 319 318 318 317 316 315 315 316 316 315 315 315 315 313 311 309 308 308 308 309 311 313 314 316 317 318 319 320 320 320 320 319 319 319 318 318 317 317 316 316 316 317 318 319 321 321
324 324 325 325 326 326 325 325 326 326 326 326 325 325 326 327 328 328 328 328 328 328 328 328 328 327 327 326 325 325 324 324 324 323 323 324 323 322 320 319 318 318 316 313 311 311 313 314 314 314 313 312 311 308 306 306 305 305 306 307 308 309 311 312 312 313 313 313 313 313 313 313 313 312 312 313 313 314 314 315 316 316 317 317 317
324 324 324 325 325 326 325 324 324 325 325 325 324 324 326 327 327 327 327 327 327 327 328 328 328 327 327 327 326 325 325 324 324 323 322 323 323 322 320 319 319 318 315 311 309 308 309 312 314 315 313 310 308 306 305 305 305 305 304 304 305 305 306 306 306 306 306 306 306 305 305 305 305 305 305 306 306 307 308 310 311 312 313 313 313
323 324 324 324 325 325 325 325 325 325 325 325 325 325 325 326 326 326 326 326 326 326 327 327 328 327 326 326 327 325 324 324 324 324 322 322 322 322 321 319 318 317 315 312 309 308 308 309 311 312 310 308 306 305 305 305 305 305 304 304 304 304 304 304 304 304 304 304 304 304 304 304 304 304 304 304 304 304 304 304 305 306 306 307 307
319 320 321 323 324 323 323 324 324 324 325 324 324 325 325 325 325 325 326 326 325 326 326 327 327 327 327 326 326 325 324 323 323 323 322 321 322 322 321 319 318 317 315 312 310 309 308 307 308 307 306 306 306 306 306 306 305 305 304 304 304 304 304 304 305 305 305 305 305 305 305 305 306 306 306 306 306 305 305 305 305 304 304 304 304
317 317 317 320 322 323 322 322 322 323 324 324 324 324 324 324 325 325 325 325 324 325 326 327 327 327 327 326 325 326 324 322 323 323 322 322 321 321 321 319 318 317 315 312 310 309 308 307 306 306 306 306 306 306 305 305 305 304 304 304 305 305 306 306 307 307 307 307 307 307 307 307 306 306 306 306 306 305 306 305 305 305 305 305 305
317 318 317 317 318 319 321 321 321 322 323 322 323 323 323 324 324 324 325 324 324 325 325 326 327 326 326 325 325 325 324 323 323 323 322 321 321 321 320 319 318 315 314 313 310 309 308 307 306 306 306 306 306 305 305 304 304 304 304 305 306 307 307 308 308 307 306 306 306 306 306 305 304 303 303 302 302 302 302 303 303 303 303 304 304
319 319 318 317 316 315 318 320 321 322 322 320 320 321 323 324 324 325 325 325 324 324 325 326 326 325 325 325 324 324 323 323 323 322 322 322 321 320 319 319 318 315 313 313 311 309 308 308 307 306 306 306 305 305 304 304 304 304 305 306 307 308 308 308 308 307 305 304 304 304 304 303 302 301 301 300 300 300 300 300 300 300 301 301 301
319 318 318 317 315 314 315 319 321 323 322 321 320 320 321 323 324 324 325 325 324 323 323 325 325 325 325 324 324 324 323 323 323 322 322 321 321 320 319 317 316 315 314 313 311 309 308 308 308 308 307 306 305 305 304 304 305 305 306 307 308 308 308 308 308 308 307 305 304 303 303 302 301 301 301 301 300 300 300 300 300 300 300 300 300
320 318 317 317 316 315 317 319 321 322 323 322 321 320 320 322 323 323 324 324 324 322 321 323 324 324 324 324 324 325 323 323 323 322 321 321 320 319 318 314 312 312 313 312 310 309 308 308 309 308 308 307 306 306 306 306 306 307 307 308 308 308 309 309 308 308 308 306 304 304 304 304 303 302 302 301 301 301 301 301 301 301 300 300 300
320 318 318 317 315 315 316 316 317 319 320 321 320 320 321 322 323 323 323 322 321 320 320 322 323 323 324 324 324 325 323 323 324 322 321 321 319 316 315 312 310 309 310 310 309 308 308 308 309 309 308 308 308 307 307 307 307 308 308 308 309 309 309 309 309 308 307 306 306 306 306 306 306 305 304 304 303 303 303 303 302 301 301 300 300
319 319 318 317 315 314 314 313 315 317 319 320 320 320 321 320 321 321 320 319 318 319 321 323 323 323 324 323 323 324 322 322 324 323 322 320 316 313 313 312 310 309 308 308 308 308 308 308 309 309 308 309 309 308 308 308 308 308 308 309 309 309 309 308 308 308 308 308 308 308 308 308 308 308 307 306 306 306 305 305 304 303 301 300 300
317 318 317 315 314 313 311 313 318 319 320 321 320 321 320 319 319 319 318 318 319 320 322 322 323 323 322 321 321 322 322 323 323 323 322 319 313 311 312 311 311 310 309 309 309 309 309 308 309 309 309 309 309 309 309 308 308 308 308 308 309 309 308 308 308 308 309 309 309 309 309 309 309 309 309 308 308 308 307 307 306 305 303 301 300
315 314 312 310 310 310 311 315 319 320 321 321 320 320 320 319 319 319 319 321 322 322 322 322 321 320 318 317 317 319 321 322 322 322 321 319 313 310 311 311 312 311 310 310 309 310 309 308 309 309 309 309 309 309 309 309 308 308 308 308 308 308 308 308 308 309 309 309 309 309 309 309 309 309 310 309 309 309 308 308 308 307 305 302 300
312 309 307 307 307 308 311 316 318 319 319 319 319 319 320 320 320 320 321 321 320 320 320 320 320 318 316 316 315 315 317 319 320 321 321 320 316 312 311 311 312 311 311 310 309 309 309 309 308 309 309 308 309 309 309 309 309 309 309 309 309 308 308 308 308 309 309 309 309 310 310 309 309 310 310 310 309 309 309 309 308 307 306 303 300
309 307 306 306 307 309 313 316 317 318 319 319 318 318 319 321 322 321 321 318 317 316 315 316 317 317 316 316 316 316 316 317 318 319 320 320 319 316 313 312 313 313 312 311 310 309 309 310 309 310 310 308 308 310 309 309 309 309 309 309 308 308 308 308 308 309 309 309 310 310 309 309 309 310 310 310 309 309 309 309 308 307 305 302 300
307 306 306 306 306 310 314 317 318 318 319 319 319 318 317 320 322 322 321 318 317 316 314 313 314 315 314 315 316 316 316 316 317 318 320 320 320 318 315 314 314 313 312 312 311 309 309 310 310 311 311 309 308 309 309 309 309 309 309 309 308 308 308 308 308 308 309 309 309 309 309 309 310 310 310 310 310 309 309 308 308 307 305 302 300
306 306 306 305 305 308 313 316 317 318 318 317 318 317 316 316 318 320 322 321 319 318 316 315 314 314 313 313 314 315 315 315 315 317 318 319 320 318 316 315 314 314 313 312 312 310 309 310 312 313 312 309 308 309 309 309 309 309 309 309 309 309 309 308 308 308 309 309 309 309 309 309 309 309 309 309 309 309 308 308 308 306 304 301 299
306 306 306 305 304 307 312 315 315 315 315 314 314 315 315 314 313 313 318 321 321 320 318 316 315 313 312 312 314 314 314 315 314 315 316 316 317 316 315 314 314 314 314 313 312 311 310 310 313 314 312 310 309 309 309 309 309 310 310 309 309 309 309 309 309 309 309 310 310 310 310 310 310 309 309 309 309 308 308 308 307 305 302 300 299
307 308 309 308 307 307 308 310 312 312 311 311 311 312 313 313 309 307 310 315 317 316 314 313 312 310 310 311 313 314 314 314 314 314 314 314 314 313 313 313 313 313 314 313 313 312 310 311 313 314 313 312 310 310 310 310 310 310 310 310 310 310 310 310 309 310 310 310 310 310 310 310 310 309 309 309 308 308 308 308 307 304 301 299 298
309 310 311 311 310 310 308 307 307 308 308 308 308 308 309 309 307 305 306 309 310 311 310 311 311 310 309 310 312 313 313 314 314 313 313 313 312 312 312 313 313 314 314 313 312 311 311 313 314 314 313 312 311 310 311 311 310 310 310 310 310 310 310 310 310 310 310 310 310 310 310 310 310 310 309 308 308 308 308 307 305 302 300 298 298
310 311 312 312 312 312 311 310 308 307 307 307 307 307 306 306 305 305 305 306 308 310 311 311 312 312 311 311 311 312 312 312 313 313 313 313 312 313 313 313 313 314 314 314 313 312 313 314 314 314 313 312 311 311 311 311 311 312 312 312 311 311 311 310 310 311 310 310 310 310 310 310 310 309 308 308 307 308 308 306 303 300 298 297 297
312 312 312 312 313 313 313 313 312 311 310 309 308 307 307 306 306 306 306 307 309 311 312 311 312 313 313 313 312 312 312 313 313 313 313 313 313 313 313 313 314 314 314 314 314 314 314 314 314 314 314 313 312 312 311 312 312 313 313 312 312 311 311 311 310 310 311 310 310 310 310 310 309 308 308 307 308 308 307 304 301 298 298 297 297
314 314 313 314 313 313 313 313 313 313 313 312 311 310 309 308 308 309 309 310 310 311 312 312 312 312 313 313 313 313 313 312 312 311 311 311 311 311 312 312 313 314 314 314 315 314 314 314 314 314 314 313 313 313 313 313 312 313 313 313 312 312 311 311 310 311 311 311 310 310 310 309 309 308 308 308 307 307 305 301 299 298 297 296 296
315 314 315 315 314 314 314 313 313 312 313 313 313 312 312 310 310 310 310 310 311 311 311 311 311 311 312 312 312 312 312 311 311 310 310 310 310 310 311 311 312 312 313 313 314 314 314 314 314 314 314 313 314 313 314 313 313 313 313 313 313 313 313 312 311 311 311 311 310 310 309 309 308 308 307 307 307 305 302 299 298 297 296 296 296
314 315 316 316 315 315 314 313 314 313 313 314 313 313 313 313 312 312 311 311 311 310 310 310 310 310 310 310 310 311 311 310 311 311 311 311 311 311 312 313 314 314 314 313 313 314 314 314 314 314 314 314 314 314 314 314 314 314 314 314 314 314 314 313 313 312 312 311 310 309 309 308 308 308 307 307 305 302 299 298 297 296 296 296 296
316 316 316 317 317 316 315 314 314 314 314 314 314 314 314 314 314 314 313 313 313 312 312 312 311 311 311 311 311 311 311 311 311 311 311 311 311 311 312 314 315 316 316 316 315 315 315 315 314 314 314 314 314 314 314 314 314 314 314 314 314 314 314 313 312 312 311 311 310 309 308 308 308 307 307 305 302 299 298 297 296 296 295 295 296
319 319 318 317 318 318 317 316 315 314 315 314 314 315 314 314 315 314 315 315 314 314 314 313 313 313 313 314 313 313 313 312 312 312 312 312 312 312 313 314 315 315 316 316 317 317 317 316 316 316 315 315 314 314 314 314 314 314 313 313 314 314 314 313 312 312 311 311 310 309 308 308 308 306 304 302 299 298 297 296 296 295 295 295 296
321 321 320 319 319 319 318 317 316 315 315 315 315 315 315 315 315 315 316 316 316 316 315 315 314 314 314 314 314 314 315 314 314 314 313 313 313 313 314 314 315 316 316 316 317 317 317 317 317 317 317 316 315 315 314 314 313 313 313 313 313 313 313 313 312 311 311 310 309 309 308 308 306 303 301 299 298 297 296 296 295 295 295 295 295
321 321 321 320 320 320 319 318 317 317 316 317 316 316 316 316 316 317 317 317 317 317 317 317 317 316 315 315 314 314 314 314 314 314 314 314 314 314 315 315 316 316 316 317 317 317 317 317 318 317 317 316 316 316 315 315 314 313 313 313 313 313 313 312 312 311 310 310 309 309 307 305 303 300 299 298 297 296 296 295 295 295 295 295 295
319 319 320 320 320 320 320 319 319 319 318 318 318 318 318 318 318 318 318 318 318 318 318 318 318 318 317 317 316 316 315 315 315 315 315 315 315 315 316 316 317 317 317 318 318 318 317 317 317 317 317 316 316 315 314 314 314 313 313 313 313 313 312 312 311 310 310 309 309 307 304 301 299 299 298 297 296 296 295 295 295 295 295 295 295
317 318 318 319 319 319 319 319 319 319 319 319 319 319 319 319 319 319 319 319 319 319 319 319 318 318 318 318 318 318 318 318 317 316 316 315 315 315 316 316 317 318 318 318 318 318 318 317 317 317 317 316 316 314 313 313 313 312 313 312 311 311 311 310 310 310 308 307 305 302 300 299 298 298 297 296 295 295 295 295 295 295 295 295 295
312 314 316 317 318 318 318 318 317 317 316 316 316 317 317 318 318 318 318 318 318 319 319 319 318 318 318 318 318 318 318 318 319 318 318 317 316 316 316 317 318 317 317 317 317 317 317 317 317 317 316 315 315 313 311 311 311 311 312 311 309 309 309 309 309 307 305 302 301 299 299 298 298 297 296 295 295 295 295 295 295 295 295 295 295
Wind_Speed
9 9 7 7 7 7 6 6 6 6 5 5 6 6 8 10 12 12 13 15 16 16 14 12 11 8 6 6 7 7 7 7 6 6 5 5 5 6 6 6 7 7 4 1 4 6 5 5 4 3 3 3 3 4 4 5 5 5 5 6 6 6 5 5 5 4 4 4 4 5 5 5 5 5 6 6 7 7 8 8 9 9 9 10 10
8 8 8 8 8 8 7 6 6 6 6 6 6 7 8 10 11 12 12 14 15 16 14 12 11 8 6 5 5 5 5 6 5 5 5 5 4 5 6 6 7 7 4 3 5 7 6 4 4 5 5 5 6 6 7 7 7 7 8 8 8 8 8 7 6 5 5 4 4 4 4 4 4 4 5 5 5 6 6 7 8 8 8 9 9
7 8 9 9 8 8 7 7 6 6 6 6 6 7 9 10 11 11 11 12 13 15 14 12 11 8 6 4 4 4 5 5 5 5 4 4 4 4 5 6 7 7 5 5 7 10 10 7 7 9 10 10 10 11 12 11 11 11 11 11 11 11 10 10 9 8 6 6 5 5 4 4 4 4 4 4 5 5 5 6 7 7 8 8 9
7 8 9 9 9 8 7 6 6 7 6 6 7 7 8 9 10 10 10 10 11 13 14 12 11 9 7 5 4 4 5 5 5 5 4 3 4 4 5 6 6 6 7 8 9 11 12 11 10 11 13 14 14 14 14 13 12 12 12 12 12 12 11 11 11 11 9 8 7 6 5 5 5 5 4 4 4 5 5 6 7 7 7 8 8
7 8 9 8 8 6 5 6 7 8 8 7 8 8 8 9 9 9 8 8 9 11 13 12 11 10 8 6 4 5 6 6 5 5 4 3 4 4 5 6 7 7 8 10 9 9 10 10 8 7 9 10 10 9 8 7 7 8 9 10 11 11 11 11 11 11 11 10 9 8 7 6 6 5 5 5 5 5 5 6 6 7 7 7 8
7 7 8 8 7 5 4 5 7 9 9 8 8 9 9 9 9 8 7 7 7 9 11 12 11 10 10 8 7 6 5 5 4 4 5 4 4 5 6 7 7 7 7 9 9 7 7 6 6 5 5 5 5 5 5 5 6 6 7 8 8 8 9 9 9 10 11 11 11 10 9 8 7 7 6 6 6 5 5 6 6 6 7 7 7
8 7 8 6 5 5 4 4 6 9 9 9 9 9 9 10 9 9 7 6 7 9 10 10 9 10 12 11 10 7 4 4 3 3 5 5 6 6 6 7 7 6 6 8 8 5 4 4 4 4 3 3 3 4 4 4 5 5 5 5 5 6 6 6 7 8 9 10 10 11 10 10 9 8 8 7 7 7 7 6 6 6 6 7 7
8 7 7 6 5 5 5 4 5 7 8 9 9 8 9 9 9 9 7 5 6 8 9 8 8 11 11 9 8 8 5 5 4 5 6 6 7 6 6 7 6 6 6 6 7 5 4 4 4 3 2 3 3 3 5 5 5 4 4 4 4 4 4 5 5 6 7 7 8 8 8 9 9 9 9 9 9 8 7 7 6 6 6 7 7
8 8 7 7 6 6 6 5 4 6 7 8 9 8 8 8 8 9 7 5 5 7 8 9 8 8 8 8 8 9 8 7 7 7 7 7 7 6 6 6 6 5 5 5 5 5 5 4 4 3 4 5 5 5 6 6 6 5 4 4 4 4 4 4 4 5 5 5 6 6 6 7 8 8 8 9 9 9 8 7 7 7 7 7 8
9 8 8 8 7 7 7 5 5 5 6 8 8 8 7 7 7 8 8 6 5 7 9 10 9 7 9 10 10 11 10 9 9 9 8 7 7 7 6 5 5 4 4 3 3 3 4 3 3 2 3 5 6 6 6 6 6 6 6 5 6 6 5 5 6 6 6 5 6 6 7 7 7 7 7 7 7 8 8 7 7 7 7 7 7
9 9 8 8 8 7 8 6 5 5 6 7 8 8 6 6 6 7 9 8 6 8 11 11 11 11 12 12 12 12 11 11 10 9 8 7 7 7 6 4 4 3 2 1 1 2 2 2 1 1 3 5 6 6 6 6 7 7 7 7 6 6 5 5 6 6 6 6 7 8 8 7 6 5 5 6 5 6 7 7 7 7 7 7 6
9 8 8 9 8 8 8 8 6 6 7 7 7 7 6 6 7 8 11 12 10 11 12 13 14 15 14 14 14 12 11 12 11 10 9 8 8 7 6 4 3 3 2 1 2 2 2 2 1 2 3 4 5 6 6 7 8 8 8 8 7 7 6 5 5 5 5 6 6 7 8 8 7 6 5 5 5 5 5 5 5 6 6 6 6
10 9 9 9 10 10 10 9 7 7 8 8 8 8 7 7 9 10 12 13 14 13 12 14 16 17 16 14 14 13 12 12 11 11 10 9 8 7 6 5 4 4 3 2 0 2 4 3 2 2 2 3 4 6 7 8 9 9 9 8 7 7 7 7 5 4 4 4 4 5 6 7 7 6 6 5 5 5 4 4 4 5 5 5 6
9 9 9 9 10 10 10 10 9 9 9 9 9 9 9 9 10 12 14 13 13 14 14 14 15 17 17 16 15 14 12 12 12 12 11 10 8 7 7 6 6 6 5 5 4 5 6 5 6 5 3 4 5 6 7 8 9 9 10 9 8 8 8 7 5 4 4 4 3 3 4 5 5 4 5 5 5 5 5 5 5 5 6 6 5
7 8 8 8 9 9 9 11 11 10 9 9 10 11 10 9 10 13 15 14 13 14 15 14 14 15 16 16 16 16 13 12 12 12 12 11 9 8 8 7 6 7 6 6 5 5 6 6 8 7 6 6 6 7 8 8 9 10 11 11 11 10 10 9 7 6 6 5 5 5 4 4 4 2 2 4 4 4 5 5 5 6 6 6 6
7 8 8 8 8 8 9 10 11 9 8 9 10 11 11 10 12 13 14 14 14 15 16 14 13 13 15 15 16 16 14 13 13 13 12 10 10 10 10 9 8 9 8 8 7 7 7 8 8 8 8 7 8 9 10 10 11 11 12 13 14 13 12 12 12 11 10 10 11 11 10 9 8 7 5 4 3 4 4 4 5 6 6 6 7
7 8 8 8 8 8 9 10 9 8 8 9 9 10 11 11 13 13 12 11 12 15 16 14 13 12 12 14 13 12 13 16 14 12 11 9 10 11 11 11 10 10 10 9 9 9 9 9 9 9 8 9 10 11 11 12 12 11 12 14 15 14 13 13 13 13 13 13 14 14 14 13 12 12 11 9 8 7 5 4 3 5 6 6 7
8 8 9 9 9 10 10 9 8 7 8 10 10 10 11 11 12 13 12 10 10 14 16 15 15 14 11 10 8 8 15 18 15 13 11 9 9 11 11 10 10 11 11 12 11 10 10 10 10 10 10 11 11 11 11 11 10 10 11 13 13 13 12 12 13 12 12 13 13 13 13 13 12 12 12 11 11 11 10 9 7 7 7 5 4
8 7 8 9 10 10 10 9 9 8 9 10 10 11 11 11 12 13 13 12 11 13 15 14 15 15 12 9 5 5 12 14 12 13 14 12 10 11 11 11 11 13 13 13 12 11 10 9 10 10 10 10 11 11 11 10 9 9 11 12 12 11 11 11 11 11 11 11 11 12 12 11 11 10 10 11 10 10 10 10 10 10 10 9 8
7 7 7 8 9 9 8 9 10 10 10 9 10 11 12 12 13 13 12 12 11 11 13 13 13 15 14 11 7 6 9 10 8 10 13 15 14 12 12 12 12 12 13 13 12 10 9 9 9 9 9 10 10 11 11 10 9 9 10 11 10 10 10 10 10 9 10 10 10 10 10 10 9 9 9 9 9 9 9 9 9 9 9 9 10
7 6 6 6 7 7 7 8 9 9 9 10 11 11 13 13 12 12 12 12 12 11 11 11 12 13 13 12 9 6 9 11 10 10 11 13 15 15 14 13 12 12 12 12 11 10 9 8 8 8 9 9 10 10 10 10 9 9 10 10 9 9 9 9 9 9 10 10 10 10 10 10 10 10 10 10 10 9 9 9 9 9 9 9 9
7 7 6 5 5 5 5 6 7 8 9 10 11 11 12 13 11 11 11 11 11 11 11 11 11 12 12 12 11 8 9 11 13 13 11 9 11 15 14 12 12 12 12 11 10 10 9 9 8 7 7 8 9 10 10 10 9 10 10 10 10 10 10 10 11 11 11 12 12 12 12 12 11 11 11 11 11 11 10 10 10 9 9 9 9
6 6 5 5 5 5 5 5 6 6 8 9 10 10 11 12 12 12 11 11 10 10 11 11 11 11 12 12 11 9 8 8 11 14 13 10 10 15 14 11 10 11 11 10 9 9 9 9 8 8 8 8 9 10 10 10 10 10 10 10 11 11 11 12 12 12 12 11 11 11 11 11 11 10 10 10 9 9 9 9 9 9 9 9 9
5 5 5 5 6 6 5 5 5 5 7 8 8 9 10 11 11 11 11 11 10 11 11 11 11 11 11 12 10 9 8 6 8 12 12 10 9 13 15 12 11 12 11 9 8 8 9 9 9 9 9 10 10 10 10 10 11 11 11 11 11 11 12 12 13 12 11 11 10 9 9 9 9 9 8 8 8 7 7 7 7 7 7 7 7
4 4 5 5 6 6 7 6 5 5 6 7 7 8 9 9 10 10 9 9 9 10 10 10 10 9 10 11 11 10 9 7 9 10 11 10 9 12 15 13 12 12 11 9 8 8 8 9 10 10 10 10 11 10 10 10 11 11 11 11 11 12 12 13 13 14 13 13 11 10 9 9 10 10 10 9 8 8 7 7 7 7 7 7 7
3 2 3 4 4 5 7 7 6 6 6 6 6 7 8 9 9 9 8 8 8 8 9 10 10 9 10 12 12 11 10 9 10 10 10 10 10 11 15 15 13 12 11 9 7 6 7 8 9 10 9 10 10 10 10 10 10 10 10 10 10 10 11 11 12 14 15 15 14 12 11 11 12 12 13 13 12 11 11 10 10 10 10 10 10
2 1 1 2 3 4 5 7 7 6 6 6 4 4 8 10 10 9 9 9 8 8 9 10 11 11 11 12 13 13 11 11 10 9 8 8 8 9 11 13 14 13 10 9 7 6 6 7 7 8 8 8 9 9 9 9 8 8 8 8 7 7 8 9 10 12 14 15 16 14 13 13 13 13 14 14 14 15 14 14 13 13 12 12 12
2 1 2 3 4 4 5 6 6 7 7 6 4 3 6 10 9 9 9 9 8 8 9 10 10 10 11 13 15 14 12 11 10 9 7 7 6 6 6 6 9 13 13 10 8 7 6 6 6 6 7 7 8 8 8 7 7 7 6 6 6 6 8 9 10 11 12 13 15 15 15 15 14 14 14 15 15 16 17 17 17 16 15 14 14
2 2 2 3 4 5 4 5 6 7 7 6 5 4 6 8 8 8 8 8 8 9 9 9 9 9 11 14 15 15 14 12 11 10 9 7 5 5 5 1 1 9 14 12 9 8 7 6 6 6 6 7 7 7 7 6 6 6 6 6 6 7 8 8 9 10 11 12 13 14 15 16 16 16 16 16 17 18 20 20 21 20 19 18 17
2 2 2 2 3 3 3 4 5 5 5 5 4 4 5 5 5 6 5 6 8 9 8 8 8 9 10 12 13 14 14 13 12 11 10 8 6 7 7 2 3 2 8 11 11 10 8 7 6 5 6 6 7 7 7 6 6 6 6 5 6 6 6 5 7 8 10 11 12 13 15 16 17 18 18 19 20 21 22 23 24 24 23 22 20
1 2 2 2 3 3 3 5 6 5 6 5 5 5 4 3 3 4 4 6 8 8 7 6 7 8 8 8 9 10 11 12 12 13 12 9 7 9 8 3 2 1 3 6 8 8 9 8 5 4 5 7 8 8 8 7 7 6 6 4 4 4 4 3 5 6 8 9 11 13 14 16 17 18 20 21 22 23 24 25 26 26 26 25 23
1 1 1 2 3 4 6 7 7 6 7 7 6 6 5 5 4 5 6 7 8 7 7 7 8 9 8 8 7 7 9 11 12 13 13 11 9 10 10 6 3 3 3 2 3 4 8 9 7 5 6 7 7 7 8 7 7 7 5 3 2 2 2 2 3 4 6 8 10 12 13 14 16 18 20 22 23 24 25 26 27 28 28 27 25
1 1 2 3 4 6 8 8 8 8 8 8 7 6 5 5 6 6 7 7 7 6 7 7 8 9 8 6 6 7 8 10 11 13 14 13 11 11 12 9 7 5 6 5 2 2 6 9 9 8 7 8 8 8 8 7 7 7 5 4 2 1 1 2 3 5 7 8 10 12 13 14 15 17 20 21 23 24 25 27 28 29 29 28 26
2 3 4 4 5 7 9 8 8 9 8 7 7 5 5 5 6 7 7 6 5 5 6 6 7 6 5 4 4 6 7 8 10 12 13 12 12 12 13 11 9 8 8 9 8 5 4 6 9 9 8 9 9 9 8 7 7 7 6 5 4 4 4 5 6 7 8 9 10 11 12 13 15 18 19 21 23 24 25 27 28 30 30 28 26
4 6 5 5 6 8 9 9 8 7 6 5 5 4 4 4 5 7 7 6 5 4 4 4 5 5 4 4 4 5 7 7 9 11 12 11 11 12 13 11 10 10 10 11 11 10 6 5 7 9 9 9 10 10 9 8 9 8 7 7 7 8 8 8 9 9 10 11 11 11 12 13 16 17 19 20 23 24 25 27 28 30 29 28 26
6 6 5 5 5 7 9 9 7 6 5 4 3 4 5 5 5 7 8 8 7 6 5 5 5 6 6 6 6 6 7 8 9 10 11 11 11 12 12 11 10 10 11 12 13 13 10 7 7 8 9 9 11 11 11 11 10 9 9 9 9 10 11 11 11 12 12 12 12 13 14 15 16 17 18 20 23 24 25 27 29 29 29 27 26
7 6 5 5 5 7 9 8 7 5 4 4 4 4 5 6 6 7 8 9 9 9 8 8 8 9 9 8 7 7 7 8 9 10 11 11 11 11 10 10 10 10 11 12 14 15 14 11 9 8 9 10 12 13 13 12 12 12 11 11 11 12 12 12 13 14 14 14 14 15 16 16 17 18 19 21 23 24 25 27 29 29 29 28 27
7 7 7 7 6 6 7 7 6 5 4 4 4 5 6 7 7 7 9 10 10 9 8 7 7 8 10 10 9 8 8 8 9 9 9 9 9 10 10 10 10 10 11 13 15 16 16 14 11 10 10 11 13 14 15 14 14 14 13 13 13 13 13 13 14 15 15 15 16 16 17 17 18 19 20 21 23 24 26 28 30 30 29 28 27
9 9 9 8 8 7 6 5 5 5 4 4 4 5 6 6 6 7 9 9 9 8 7 6 5 6 8 11 10 9 9 9 9 9 10 10 11 11 10 10 10 10 10 12 13 14 15 14 13 12 11 12 14 15 15 15 16 16 16 15 15 15 15 15 15 16 16 17 17 17 17 18 19 20 21 21 22 24 27 29 30 29 28 27 26
9 9 8 7 7 7 7 6 5 5 4 3 4 4 5 6 6 7 8 9 9 8 7 7 6 6 7 9 10 10 10 10 11 11 11 11 10 10 10 11 10 10 10 10 11 13 14 15 15 14 13 14 16 16 17 17 18 18 17 16 16 16 16 17 17 17 18 18 18 18 18 19 20 20 20 21 23 25 28 29 29 28 27 27 26
10 8 6 5 5 6 6 6 6 6 5 3 2 4 5 5 6 7 8 9 9 8 8 8 8 8 8 8 9 9 10 10 11 11 11 11 11 11 12 12 11 11 12 12 13 15 16 16 16 16 15 16 17 18 19 19 19 18 17 17 18 18 18 19 19 19 19 20 19 19 20 20 20 20 21 22 24 27 28 29 28 28 28 27 26
9 8 6 5 4 4 4 4 5 5 6 5 3 2 3 5 6 7 7 7 8 8 8 9 9 9 9 10 10 10 10 11 11 12 12 13 14 14 14 14 14 13 14 15 16 17 18 19 19 19 19 19 19 19 20 20 20 19 19 19 19 19 20 20 21 21 21 21 21 20 21 21 21 21 22 23 25 28 29 28 28 28 28 27 26
11 9 7 6 6 5 4 3 3 4 5 5 4 3 3 3 5 7 7 8 8 9 9 10 10 10 11 11 12 13 13 13 14 14 14 15 15 16 16 16 16 16 16 17 18 19 20 21 21 22 22 22 21 21 21 21 21 21 21 21 21 21 22 22 22 22 22 22 22 21 21 21 22 22 23 25 27 28 28 28 28 28 27 26 25
13 11 9 8 8 7 6 5 4 4 4 3 3 2 2 3 4 5 6 7 8 9 10 10 11 11 12 13 14 15 15 16 16 16 16 16 16 17 17 17 17 17 18 18 19 19 20 21 21 22 23 23 23 23 23 23 24 24 24 24 24 23 23 23 23 23 23 22 22 21 21 21 22 23 24 26 28 28 27 27 27 27 26 25 25
13 12 11 10 9 8 8 8 7 7 7 7 7 7 7 7 7 7 7 8 9 9 10 11 11 11 12 13 14 15 16 17 18 18 18 19 19 19 18 19 19 19 19 19 19 20 20 21 22 23 23 24 23 23 23 24 25 26 27 27 25 24 23 23 23 24 24 23 23 22 21 22 22 23 24 26 27 26 25 26 26 26 26 25 25
12 13 13 12 10 9 10 10 10 11 11 11 12 12 12 12 11 11 11 12 12 13 13 13 14 14 14 14 15 15 15 16 18 19 19 20 20 21 20 20 21 21 21 22 22 22 22 22 23 24 25 25 25 24 23 23 23 26 27 26 25 24 24 24 24 24 24 24 23 22 22 23 23 23 24 25 24 24 24 24 25 25 25 24 25
12 12 12 12 11 10 11 12 12 13 13 14 14 14 15 15 14 14 14 15 15 16 16 17 18 18 19 19 19 19 18 18 19 20 21 22 23 23 23 23 23 23 24 25 25 26 25 25 25 26 26 27 27 27 27 24 24 26 26 25 24 24 23 24 25 24 24 23 23 22 22 23 23 23 23 23 22 22 23 23 24 24 23 24 25
13 12 12 12 11 11 11 12 13 14 15 15 16 16 17 17 17 17 18 18 19 19 19 19 20 21 22 23 23 24 23 22 22 23 24 25 26 26 26 26 26 26 27 27 28 29 29 29 29 29 30 29 29 30 30 26 24 25 25 23 24 24 24 25 24 23 23 23 22 23 23 23 22 22 21 21 21 21 22 22 22 22 23 24 25
12 11 11 11 11 11 11 11 12 14 15 17 18 19 20 20 21 21 22 23 24 25 25 24 24 24 24 25 26 26 27 26 26 26 27 28 29 29 30 30 30 31 31 30 30 30 31 32 33 33 33 33 34 35 33 29 25 24 24 26 27 27 25 24 24 22 22 22 22 22 22 21 21 21 21 21 21 21 20 20 20 21 23 24 25
9 9 9 9 10 11 11 12 12 13 15 17 18 20 21 22 23 24 25 26 27 28 28 29 29 29 29 29 29 29 29 29 28 29 29 31 32 32 33 33 33 34 33 32 32 33 34 35 35 34 34 34 34 33 30 27 24 23 24 26 26 24 23 23 22 21 20 20 20 20 19 19 20 20 21 21 21 20 19 18 19 21 24 25 24
5 7 8 9 10 11 12 13 13 14 15 16 17 18 20 21 22 23 24 26 27 27 29 30 30 30 31 31 32 32 32 32 30 29 29 30 31 31 32 33 34 35 34 33 34 35 36 35 34 32 32 32 31 28 26 25 22 22 24 25 23 21 21 21 21 20 19 18 17 18 18 18 19 20 20 21 21 20 19 19 20 22 23 24 23
Wind_Direction
160 160 165 175 185 191 187 174 155 143 150 157 159 168 175 178 180 180 181 180 176 179 181 182 187 179 163 140 117 104 86 79 73 70 76 75 79 87 92 97 106 105 101 67 5 19 55 68 65 62 69 72 58 54 50 42 36 32 29 28 29 29 26 23 21 20 26 33 40 43 46 46 47 50 52 53 55 55 57 56 54 52 52 52 52
158 165 171 179 184 185 183 172 157 149 151 159 159 161 171 175 175 175 176 177 176 179 182 184 187 179 161 142 123 111 94 88 87 87 88 87 91 93 94 95 104 109 107 92 45 46 77 91 72 56 58 67 65 66 62 55 51 50 47 43 42 40 38 36 31 24 20 22 30 36 38 39 40 41 41 44 48 49 52 55 52 50 48 48 48
165 173 178 181 184 182 178 168 162 167 169 171 168 164 170 174 173 175 176 177 179 183 187 191 192 187 175 163 144 122 108 110 107 98 93 93 92 84 88 89 97 103 95 88 69 63 75 87 73 56 61 71 72 74 72 67 64 62 58 55 53 51 48 47 44 38 29 21 18 21 25 27 30 30 32 33 37 41 42 45 47 45 43 43 43
179 182 183 183 184 182 175 168 173 183 189 189 184 179 179 178 177 179 179 180 183 187 192 198 201 200 196 189 170 134 128 131 120 110 103 96 93 84 85 85 90 91 84 91 86 73 73 78 74 61 64 72 74 75 72 69 66 62 59 55 53 52 50 50 50 47 41 35 26 19 20 20 21 21 23 25 27 34 37 38 38 37 37 37 38
189 189 186 186 187 184 179 182 189 194 196 198 197 194 192 189 186 185 185 186 187 192 197 201 205 206 206 202 174 152 151 149 141 135 125 111 103 93 87 82 82 82 83 92 89 75 72 75 78 73 69 70 71 68 60 55 48 42 43 43 44 44 42 44 47 47 45 44 40 35 31 27 25 23 21 23 24 32 37 39 35 31 31 32 32
190 191 190 190 187 181 183 192 195 198 198 196 198 198 200 200 196 195 194 191 193 194 196 200 207 211 210 199 169 160 161 155 156 141 123 115 108 96 90 86 85 86 88 94 92 83 83 83 85 96 93 81 76 60 46 41 26 15 16 19 28 32 31 33 38 42 41 39 40 38 37 34 30 28 25 23 22 26 31 36 36 30 26 26 28
192 189 189 185 175 173 179 187 191 196 199 195 194 195 198 201 202 206 204 197 194 190 194 202 208 208 202 188 165 152 150 155 148 128 123 118 112 104 95 90 90 90 90 97 104 105 104 106 104 105 101 84 76 50 33 36 24 11 6 3 13 20 17 19 25 33 34 34 35 33 31 30 27 25 23 19 18 18 20 23 27 27 24 22 24
198 188 190 180 168 175 182 186 189 196 201 197 195 192 193 199 205 208 204 197 192 191 198 199 199 197 187 178 159 134 132 147 134 133 133 126 122 114 100 94 96 98 91 93 103 111 111 109 102 90 70 65 67 41 23 23 14 5 2 354 1 6 353 353 6 17 20 23 26 24 22 22 21 20 18 15 14 15 17 17 18 21 22 20 20
203 193 193 181 175 185 190 193 189 194 201 198 196 193 191 196 200 202 195 188 189 195 195 181 187 190 156 145 144 126 134 146 139 143 138 135 134 122 110 106 107 106 99 94 99 106 103 93 85 76 70 64 51 30 20 16 7 356 348 335 336 339 329 331 338 345 348 354 359 357 3 6 3 5 7 7 9 14 18 21 22 23 25 22 21
207 200 196 187 187 191 196 203 197 198 203 200 200 195 190 189 189 195 189 177 180 187 182 169 167 161 133 130 132 125 133 140 137 140 136 137 136 125 121 117 118 118 108 102 101 107 97 79 79 74 43 26 14 7 5 4 359 346 342 339 331 325 318 318 320 321 320 322 323 321 329 336 337 344 352 353 3 13 18 25 30 29 30 29 27
210 204 201 199 200 200 206 209 205 209 205 201 201 193 192 187 175 180 177 161 161 176 174 162 152 147 138 132 129 127 132 135 135 134 130 132 131 132 132 120 117 126 132 137 161 167 134 107 101 30 353 353 357 0 1 1 2 356 357 359 349 339 331 322 318 319 311 301 298 296 299 304 306 318 337 345 358 12 17 23 30 34 35 34 32
220 217 214 212 209 207 213 210 206 212 204 198 199 191 189 177 158 164 168 156 159 173 170 161 151 143 140 135 129 130 131 131 131 126 120 117 119 128 131 120 119 130 135 173 247 240 149 145 267 310 333 351 0 7 9 8 10 12 15 14 9 6 2 349 327 316 306 290 285 285 288 288 284 287 302 326 346 359 3 8 18 28 32 30 27
231 230 226 220 211 209 213 210 205 206 197 187 187 187 181 166 155 160 167 162 163 172 172 164 154 144 141 138 131 131 131 129 128 122 117 114 115 120 120 112 109 118 114 100 40 34 79 88 25 7 1 21 25 20 19 17 18 19 19 18 18 18 18 15 356 339 328 300 283 281 286 285 279 275 282 300 322 327 327 335 347 3 15 19 17
231 231 225 217 213 212 209 204 200 199 195 185 180 183 179 170 163 163 166 171 169 169 173 167 157 149 146 142 136 135 132 128 125 118 112 108 106 104 104 101 98 107 106 92 75 55 64 64 58 67 62 46 41 32 28 27 28 28 25 29 33 31 33 32 26 22 9 343 327 310 301 299 289 274 273 283 293 299 307 316 327 337 346 353 358
224 226 219 212 215 212 202 199 197 196 195 190 183 179 179 176 171 169 168 173 174 168 171 173 165 155 149 145 142 139 131 124 121 112 104 99 94 90 88 90 90 90 88 81 76 69 67 63 62 66 63 55 47 42 44 45 46 43 44 49 51 50 54 55 53 49 44 43 43 32 17 3 351 339 298 291 294 302 306 306 312 316 320 328 335
217 220 215 209 216 210 197 195 196 198 196 193 187 179 180 178 172 175 173 173 175 170 169 174 175 164 154 148 146 143 135 131 126 113 106 99 94 91 88 86 83 81 82 84 88 88 80 72 68 66 63 59 55 56 60 61 59 57 58 61 61 61 62 65 65 64 66 69 65 59 57 55 54 54 48 27 6 353 330 312 300 296 301 304 307
206 209 207 205 208 201 191 186 190 202 194 183 183 180 180 178 172 176 180 179 177 173 172 175 179 180 169 156 151 153 149 144 135 119 113 110 102 100 94 87 85 85 88 89 89 88 82 76 73 70 69 68 68 69 68 64 61 60 61 64 67 67 65 67 69 68 68 69 69 67 65 64 66 65 62 58 53 48 39 25 351 318 319 308 296
197 197 199 200 198 190 186 185 189 197 188 178 178 182 183 179 173 176 182 189 187 178 179 180 182 188 190 174 165 174 166 155 146 134 127 121 114 110 102 95 95 96 95 92 88 83 79 77 77 77 76 76 74 70 65 60 57 57 60 63 68 71 69 68 71 70 68 66 64 64 64 63 62 61 58 55 51 50 50 50 47 36 27 15 346
191 187 190 192 188 184 185 188 187 184 183 181 180 184 187 182 178 178 182 189 194 187 186 189 188 190 194 191 179 176 179 174 164 156 147 139 132 122 113 109 107 103 99 93 88 86 84 84 86 85 79 75 69 63 60 57 55 57 62 66 68 71 71 68 69 70 69 66 63 60 58 56 52 48 46 43 43 43 44 45 46 48 48 44 39
184 182 184 183 183 183 186 187 183 181 184 187 188 189 191 188 183 182 185 189 194 195 196 200 200 196 194 195 187 168 184 194 193 185 169 153 147 137 125 121 116 107 99 91 87 89 92 93 92 86 77 69 62 60 59 57 58 61 65 69 71 73 73 72 69 69 68 66 64 60 56 52 47 42 38 36 35 34 34 35 35 38 40 39 38
180 181 183 183 185 183 181 182 181 182 186 188 190 189 191 195 192 188 190 192 193 196 200 208 213 205 197 198 200 184 183 193 201 206 191 167 157 151 142 136 128 113 100 91 85 86 91 98 97 84 73 64 59 60 62 63 65 68 70 71 72 74 74 74 71 66 64 63 61 60 57 55 51 47 44 40 37 33 29 27 25 25 25 25 25
181 181 180 176 177 179 179 183 183 185 187 186 186 187 189 193 196 195 195 194 196 199 200 207 216 214 205 203 207 202 191 191 198 202 201 190 173 161 153 147 139 123 109 97 84 80 83 92 98 88 75 67 66 68 68 71 74 74 77 77 75 75 74 74 72 69 66 64 62 61 59 58 55 52 50 47 44 40 35 30 26 23 20 17 16
183 186 187 180 171 172 177 185 190 187 185 185 186 186 186 187 190 192 195 198 204 206 203 203 208 212 210 206 207 212 209 201 203 203 201 198 181 165 159 153 146 132 119 107 88 77 77 87 97 92 84 77 75 76 75 78 82 83 85 85 82 81 78 75 72 69 66 63 61 59 57 55 53 50 47 45 43 41 37 32 27 23 21 18 17
174 176 183 190 187 185 188 192 192 180 172 177 182 185 187 190 192 194 200 209 213 211 207 205 205 207 209 205 202 208 217 224 219 209 203 206 192 170 164 159 152 141 130 118 102 83 76 88 96 90 87 85 82 83 84 87 90 92 94 93 91 86 82 77 71 66 63 60 58 57 56 52 49 46 42 39 36 33 31 26 21 15 11 8 6
153 161 164 176 186 192 198 199 185 169 163 165 174 183 187 190 195 198 204 210 211 209 207 207 207 209 210 205 200 199 202 214 222 211 202 205 199 175 166 165 161 149 140 133 119 97 84 91 96 91 89 90 89 89 93 97 98 101 103 100 96 91 84 78 71 64 60 58 57 56 57 57 54 51 47 44 39 34 30 25 20 13 6 0 354
118 147 161 163 169 180 192 196 187 177 172 165 167 180 185 186 190 195 199 202 203 200 198 200 203 208 209 203 200 198 194 202 212 208 200 199 199 183 167 162 163 156 148 145 132 111 98 98 97 95 94 94 95 97 102 105 107 110 112 107 101 94 86 78 70 63 60 59 57 55 54 53 51 47 44 42 38 34 31 26 22 17 12 8 3
76 83 187 169 152 160 178 183 186 191 193 185 184 193 193 190 191 195 200 202 201 197 195 198 200 202 203 198 198 199 197 199 203 201 199 198 202 199 180 167 163 162 161 156 143 124 106 104 101 99 101 103 104 108 113 115 118 120 119 116 107 95 86 79 71 66 62 60 58 57 53 50 47 43 41 39 35 32 29 25 21 16 12 8 4
57 77 168 167 153 165 175 177 189 204 208 209 216 215 194 191 194 197 198 197 197 199 200 200 199 199 197 194 196 200 201 200 199 195 195 206 216 217 207 190 173 169 169 165 155 142 126 115 111 109 113 117 117 121 124 125 129 131 130 124 112 102 96 84 72 65 60 58 56 55 51 46 43 40 38 36 33 29 25 21 18 14 10 6 2
44 86 140 159 157 172 183 181 193 205 211 220 223 202 183 184 188 190 188 191 198 202 202 201 199 196 195 192 193 198 202 197 193 192 194 209 228 213 198 227 230 176 169 166 161 151 144 138 131 126 127 131 133 134 136 138 143 146 143 135 124 119 111 87 67 60 54 49 46 42 38 34 30 28 26 26 24 22 20 17 14 12 9 5 1
33 83 125 152 160 183 193 169 164 175 184 195 191 179 178 180 181 184 184 187 193 199 199 195 194 190 190 190 191 196 199 192 188 192 197 205 210 198 188 140 25 145 153 152 156 158 161 158 149 140 134 139 144 143 147 152 159 165 162 151 142 141 126 83 59 54 46 37 32 28 24 20 16 14 14 14 14 13 12 11 10 8 6 3 0
19 56 103 141 163 191 179 149 140 141 147 152 155 160 171 177 181 187 181 172 176 184 182 173 173 174 173 175 182 190 192 189 188 189 194 198 191 185 185 169 92 108 121 131 146 163 173 168 158 148 143 148 150 150 157 166 173 181 180 171 165 162 141 80 51 40 29 21 17 15 13 10 6 4 4 5 6 5 5 4 4 3 2 360 357
1 16 127 142 154 166 154 141 140 141 139 143 151 158 166 173 171 170 165 158 161 167 162 155 155 156 154 150 159 176 185 189 190 191 191 192 187 184 189 198 205 205 204 163 123 147 168 172 176 177 168 165 164 165 170 176 185 190 192 200 204 159 140 67 20 9 1 359 359 360 359 358 356 354 355 357 358 358 358 358 358 358 357 355 353
306 215 179 162 154 152 148 142 143 145 139 135 141 147 154 162 160 158 156 150 150 157 156 155 157 158 156 149 153 170 182 192 196 196 196 194 192 194 201 212 224 225 224 222 212 162 170 181 188 191 189 185 182 184 186 187 193 197 201 218 242 227 222 291 312 321 329 334 340 344 346 345 343 343 347 350 351 351 352 353 353 352 351 350 349
233 199 184 178 168 157 152 149 146 144 138 128 126 128 138 157 162 161 158 149 151 159 156 158 164 167 170 171 170 171 177 194 201 200 201 202 202 204 208 218 230 235 233 232 231 222 208 207 205 204 206 201 196 194 193 194 198 202 208 220 241 261 271 277 282 292 303 311 320 328 330 329 330 334 339 342 344 345 347 348 349 348 347 346 345
203 191 183 180 178 169 161 157 155 150 145 137 130 129 141 164 176 177 174 169 172 183 180 180 187 190 197 207 206 189 183 192 197 196 201 208 213 215 219 230 241 241 239 241 241 239 241 241 227 224 223 215 208 202 197 196 198 204 214 223 237 251 263 270 271 276 286 296 306 311 312 315 321 327 331 335 338 340 342 344 344 343 342 341 340
189 184 181 178 181 180 172 167 168 168 168 168 165 160 160 168 182 189 191 190 191 200 211 221 225 224 226 226 220 205 196 194 195 197 203 209 215 220 229 241 249 248 244 245 247 247 248 252 245 242 237 222 211 210 208 207 208 213 218 226 237 247 257 265 266 270 279 289 296 298 302 308 314 319 324 329 331 334 337 339 339 338 337 335 334
180 169 160 159 164 175 173 170 173 179 184 189 189 185 179 178 186 193 196 198 201 204 211 223 234 236 235 229 222 214 206 199 195 196 200 204 210 219 232 245 251 251 247 244 247 250 250 252 254 249 240 225 214 213 215 215 219 225 228 232 240 246 254 260 263 267 274 281 287 292 298 303 307 312 317 322 326 330 333 334 334 333 331 330 328
164 144 129 124 124 144 162 166 173 182 188 195 196 196 195 196 197 195 194 197 201 203 208 217 225 228 225 220 219 218 214 207 203 203 209 219 233 242 247 253 256 254 248 243 243 247 247 248 250 246 240 235 225 221 220 220 224 231 236 240 243 248 254 258 261 266 271 275 281 288 294 298 301 306 311 317 323 326 329 329 329 327 326 324 323
156 141 126 116 110 110 122 140 161 172 176 184 192 198 203 205 205 198 191 190 194 198 204 210 212 211 209 211 217 224 227 227 229 236 246 256 264 266 265 268 266 259 252 245 240 238 239 243 247 245 240 236 231 228 227 226 228 232 237 242 246 251 257 259 261 265 268 271 277 283 287 291 295 301 308 314 318 322 324 324 323 322 321 319 318
154 144 133 127 120 112 108 112 124 135 145 173 191 197 200 199 199 196 189 188 191 196 200 201 206 209 206 208 217 227 235 242 247 253 261 267 272 274 277 280 278 270 263 254 245 243 245 249 251 248 241 236 232 231 231 232 236 240 243 247 251 255 259 261 263 265 267 269 273 278 281 286 291 297 304 309 314 317 319 319 318 318 317 316 315
157 153 152 149 142 131 122 117 114 111 111 124 175 202 206 200 197 196 197 198 200 203 206 206 209 216 219 220 222 228 237 245 252 258 264 269 273 277 281 284 283 278 272 263 256 256 258 259 258 254 249 245 241 237 237 240 246 250 252 253 254 254 257 259 260 263 266 268 270 274 278 282 288 294 300 305 310 314 315 315 315 315 314 314 314
171 171 176 177 172 160 142 135 128 119 110 109 122 166 203 215 217 215 216 219 219 218 220 220 220 224 230 233 235 236 241 247 254 261 266 271 274 277 280 280 277 274 271 267 265 266 267 267 265 261 258 258 257 255 254 254 254 252 251 252 254 255 256 256 256 260 263 264 266 269 273 278 284 290 297 304 309 311 312 312 313 313 313 313 315
191 195 196 194 190 184 177 164 145 128 119 118 119 128 160 203 222 229 233 238 242 243 240 237 235 235 239 242 245 246 249 254 260 264 268 271 274 276 277 276 274 270 266 264 265 266 268 269 267 263 261 263 265 265 264 262 259 256 253 252 253 256 259 259 259 261 264 264 264 265 268 276 284 291 299 305 308 309 309 310 311 312 312 314 317
202 210 213 209 202 199 198 192 180 166 161 167 174 178 201 220 228 235 238 241 247 252 254 254 253 253 253 255 255 257 259 262 266 269 270 272 273 274 274 274 273 271 268 266 265 264 263 264 265 265 265 267 267 265 264 263 263 261 258 254 255 259 262 263 263 263 264 264 263 264 269 277 285 293 300 304 305 305 307 309 311 312 314 317 320
209 217 222 222 220 219 214 211 212 215 217 220 222 224 232 240 245 247 249 253 255 257 260 262 264 264 264 263 262 262 265 269 271 273 273 274 276 276 276 275 275 275 274 273 273 271 267 263 261 263 265 267 267 267 265 264 265 263 258 255 258 262 263 262 260 258 259 261 262 265 272 280 287 294 299 300 301 303 307 310 311 313 315 318 321
210 217 222 225 228 229 227 229 232 234 236 237 238 239 241 241 243 244 246 250 254 256 258 260 260 261 261 263 263 262 264 269 273 276 277 278 279 279 279 279 279 279 279 279 278 277 274 269 266 265 264 263 264 264 260 258 259 261 260 258 260 263 264 262 258 254 255 257 260 266 274 282 288 293 295 296 299 303 307 310 311 313 315 317 320
209 213 217 221 225 227 229 233 239 243 247 248 250 253 254 254 254 253 252 252 252 253 254 256 258 260 261 262 264 264 265 266 269 272 275 276 278 279 279 279 279 280 281 281 280 279 276 273 272 271 269 265 263 262 260 258 258 260 262 262 259 258 258 256 253 251 253 256 262 269 277 282 287 290 292 295 301 305 307 309 311 313 315 317 320
207 209 214 218 222 227 230 234 241 246 249 252 254 256 257 258 260 261 262 263 263 262 261 261 262 263 264 265 266 267 266 265 266 268 270 272 273 274 275 275 276 276 276 277 277 277 277 275 274 275 274 270 269 270 271 273 270 263 260 255 250 249 249 247 247 248 253 260 267 274 279 283 286 289 293 296 300 304 307 309 311 314 316 318 320
207 209 214 218 224 230 235 240 244 249 253 254 255 257 257 258 259 261 262 264 265 266 266 266 266 265 265 266 267 268 268 267 267 267 267 268 269 270 271 272 273 272 271 272 273 274 276 276 275 276 276 275 275 275 275 275 272 264 255 250 249 250 248 244 245 250 256 264 271 276 280 284 287 290 293 296 299 303 306 309 312 316 318 319 320
211 218 224 228 234 240 244 247 249 252 256 258 259 260 261 262 263 264 265 265 265 266 266 267 267 266 266 265 265 265 266 268 269 270 269 269 269 269 271 272 273 273 272 273 274 275 276 276 274 273 274 275 276 276 273 270 267 261 254 249 246 246 245 245 250 256 262 267 272 277 281 285 288 291 295 299 303 307 310 313 316 318 318 318 319
225 228 237 241 244 248 250 252 253 253 254 257 260 262 264 266 268 269 269 270 269 269 269 270 269 269 268 268 267 266 265 265 266 267 269 270 270 271 272 273 274 274 275 276 277 278 279 278 275 274 274 275 275 274 271 267 261 256 253 246 240 241 247 253 257 259 262 267 273 279 283 286 290 295 301 307 311 312 314 317 319 318 316 316 318